Temp
27 25 25 27 33 34 32 32 34 32 32 31 30 31 31 29 28 24 25 24 24 22 19 20 20 20 20 20 20 20 20 20 19 19 19 19 19 19 18 18 18 18 18 18 18 18 18 18 18
25 26 27 30 34 32 32 33 31 31 31 30 30 31 30 28 26 25 24 24 24 22 20 20 21 21 20 20 20 20 20 20 19 19 19 19 19 19 19 18 19 18 18 18 18 18 18 18 18
27 26 30 34 34 32 31 32 32 31 30 31 31 29 28 27 26 25 23 23 23 22 21 21 21 20 21 20 20 20 20 20 20 19 19 19 19 19 19 18 19 18 18 18 18 19 18 18 18
28 30 32 34 33 33 33 33 33 32 31 30 30 29 26 26 26 25 23 23 23 23 21 21 21 20 20 20 20 20 20 20 20 20 20 19 19 19 19 19 19 18 18 18 18 18 18 18 18
29 32 34 34 33 34 34 32 31 33 31 31 31 29 26 25 24 23 23 23 23 23 20 21 20 20 20 20 20 20 20 20 20 20 20 19 19 19 18 18 18 18 18 17 18 18 18 18 17
32 32 34 33 33 34 34 33 33 32 31 30 30 29 26 25 24 23 23 23 23 23 20 19 20 20 20 20 20 20 20 20 19 19 19 18 18 19 19 19 18 18 18 18 18 18 17 18 17
34 34 34 34 34 33 33 33 34 33 32 31 30 30 26 25 24 23 23 23 23 23 21 18 18 20 20 20 19 19 19 19 19 19 19 19 19 18 18 19 18 18 18 18 17 18 17 18 17
32 36 34 35 34 33 34 34 33 33 31 30 30 30 28 25 23 23 23 22 23 23 21 20 18 17 18 20 19 19 19 19 19 19 19 19 18 19 19 19 18 18 18 18 18 18 18 18 17
32 34 34 34 34 35 35 35 32 31 30 30 29 29 28 24 24 23 22 21 21 21 21 20 19 18 18 18 19 19 19 19 19 19 19 19 18 19 19 18 18 19 18 18 18 18 18 18 18
34 35 34 35 35 35 34 34 34 33 31 29 28 27 26 24 24 23 23 22 21 21 21 20 19 18 19 18 19 18 17 17 18 17 18 19 19 18 19 18 18 18 19 18 18 18 18 18 18
35 35 35 35 33 34 35 35 34 34 34 31 29 27 26 25 24 24 24 23 23 22 21 20 20 19 18 19 19 19 18 19 18 18 18 18 19 19 19 19 18 18 18 18 18 18 18 17 17
34 34 34 34 34 34 35 34 34 34 33 31 30 27 26 25 25 24 24 24 23 22 22 21 21 20 19 19 18 19 19 18 18 19 19 18 19 19 19 19 18 19 18 18 18 19 18 17 17
34 34 33 34 34 33 33 34 34 34 32 30 29 28 27 26 25 25 24 24 24 22 22 21 20 20 19 19 19 19 19 19 19 18 19 18 17 17 19 19 18 18 19 18 18 18 17 18 17
33 33 34 34 34 34 33 34 34 32 31 30 29 28 27 27 26 25 24 24 24 23 22 21 20 19 19 18 18 19 19 20 19 19 19 18 18 18 18 19 19 18 19 19 18 18 18 18 18
33 33 35 35 34 35 34 34 34 32 31 30 29 28 28 27 26 25 24 24 23 23 22 21 20 19 18 18 18 18 19 19 19 19 19 18 17 17 18 19 18 18 19 19 17 17 18 17 18
33 34 34 36 35 34 34 33 34 32 32 30 29 28 28 26 26 25 25 24 23 23 22 21 21 20 19 19 18 19 20 20 20 19 19 18 17 17 17 17 18 19 19 19 19 18 18 18 18
34 34 34 35 34 34 34 34 33 33 32 30 29 28 27 26 25 25 24 24 23 23 22 21 21 21 19 19 19 19 19 19 19 19 19 19 18 17 17 17 18 19 19 18 18 18 17 17 17
34 34 35 33 34 34 34 34 35 33 32 31 29 27 26 25 25 24 23 24 23 22 22 20 20 20 19 19 19 19 19 19 19 19 19 18 18 18 18 18 18 18 18 17 18 18 19 20 18
33 33 33 34 34 33 34 34 35 33 33 32 30 27 26 26 25 24 23 23 22 22 22 21 19 17 19 17 19 20 19 19 19 18 18 18 18 17 17 18 17 17 17 17 18 18 18 18 19
33 32 33 34 34 33 34 34 35 35 33 33 31 29 27 26 25 24 23 22 21 21 21 20 20 20 18 17 19 19 19 19 19 19 18 17 17 17 17 17 17 17 17 17 18 18 17 17 18
33 33 33 33 33 34 33 33 34 35 33 32 31 31 28 28 26 24 22 22 21 20 20 19 20 19 18 18 19 18 19 19 19 19 19 17 17 16 16 16 16 17 17 17 17 17 17 17 18
32 34 33 32 32 33 34 32 33 34 34 33 31 30 30 28 26 24 23 21 21 20 19 18 18 18 18 18 19 19 19 20 19 19 18 17 16 16 16 15 16 16 16 17 17 17 17 16 17
33 33 32 32 32 33 33 33 34 34 33 34 33 31 30 28 26 25 23 21 21 20 19 18 18 18 19 19 18 19 19 19 19 18 17 18 17 16 16 16 16 16 16 17 16 16 17 17 17
33 32 32 32 33 32 33 33 33 34 33 34 33 31 30 28 26 25 23 21 20 20 19 18 17 17 18 18 19 19 19 18 18 17 18 17 18 17 17 16 16 16 16 16 17 17 16 17 16
32 31 31 31 32 32 33 32 33 34 34 33 32 31 30 28 26 25 23 20 19 20 19 18 18 18 18 17 17 17 16 17 17 17 17 17 17 16 16 16 16 16 16 16 16 16 16 16 15
31 32 31 30 31 31 32 31 32 34 33 32 31 30 29 28 27 25 23 22 20 19 19 19 18 18 17 17 16 17 17 17 18 16 16 17 15 15 16 17 16 15 15 15 16 16 16 16 16
32 31 33 31 32 32 33 34 34 34 34 33 31 30 29 28 27 26 25 22 21 20 20 20 19 17 17 17 16 17 18 18 17 16 15 16 15 15 17 17 16 16 16 15 16 16 16 16 16
32 33 31 32 29 29 32 32 32 32 33 32 30 30 28 28 27 26 24 23 22 21 20 19 18 18 17 17 16 16 16 16 15 15 15 15 17 17 17 16 15 16 16 16 16 16 16 16 16
31 31 31 33 32 30 30 29 26 32 33 33 31 29 27 27 26 25 24 22 22 21 20 20 19 18 18 18 17 17 17 16 15 15 15 15 17 17 16 16 15 15 15 15 16 16 16 16 16
33 32 32 31 30 32 31 32 33 34 33 32 31 28 27 27 26 25 24 23 22 22 21 20 20 19 18 17 17 17 16 16 15 15 15 14 16 17 15 15 14 14 15 16 16 16 16 16 15
Height
1493 1491 1492 1490 1482 1477 1491 1493 1483 1488 1493 1497 1497 1494 1496 1499 1503 1521 1519 1524 1528 1532 1533 1536 1539 1542 1544 1547 1549 1551 1553 1555 1556 1557 1559 1560 1561 1562 1563 1563 1565 1566 1567 1567 1568 1569 1571 1572 1572
1494 1495 1494 1484 1481 1494 1501 1491 1498 1498 1500 1500 1501 1497 1501 1508 1513 1517 1522 1527 1530 1534 1536 1538 1541 1544 1547 1549 1551 1552 1554 1556 1557 1560 1560 1561 1562 1563 1564 1565 1566 1567 1567 1569 1570 1570 1571 1572 1572
1493 1495 1492 1475 1479 1497 1503 1495 1500 1503 1503 1500 1501 1506 1508 1514 1518 1521 1526 1530 1533 1537 1540 1539 1543 1546 1548 1551 1553 1555 1556 1557 1559 1561 1561 1563 1564 1564 1565 1566 1567 1567 1569 1570 1570 1572 1572 1573 1574
1499 1494 1487 1480 1494 1492 1495 1496 1497 1497 1502 1505 1503 1509 1518 1520 1521 1523 1528 1533 1537 1540 1542 1542 1545 1549 1551 1552 1554 1556 1558 1558 1559 1561 1562 1563 1564 1565 1566 1567 1568 1569 1570 1571 1572 1572 1574 1573 1574
1498 1487 1480 1487 1492 1491 1495 1500 1502 1497 1504 1506 1505 1512 1520 1524 1525 1529 1532 1536 1539 1541 1541 1543 1546 1549 1552 1554 1555 1557 1558 1559 1560 1562 1563 1564 1565 1566 1567 1568 1569 1569 1569 1573 1574 1574 1574 1575 1575
1490 1486 1485 1493 1493 1491 1495 1499 1499 1500 1504 1508 1508 1513 1522 1527 1529 1532 1536 1538 1541 1543 1545 1545 1546 1550 1552 1554 1556 1558 1559 1560 1562 1563 1564 1565 1566 1566 1567 1568 1569 1571 1571 1572 1573 1574 1576 1576 1577
1486 1475 1481 1484 1492 1497 1497 1497 1494 1500 1503 1507 1509 1513 1524 1528 1531 1534 1537 1540 1543 1545 1547 1548 1548 1548 1551 1554 1557 1559 1560 1561 1563 1564 1565 1565 1566 1566 1567 1568 1569 1570 1571 1572 1573 1574 1575 1577 1577
1485 1478 1488 1482 1489 1498 1496 1496 1500 1497 1507 1511 1511 1512 1521 1527 1531 1535 1539 1542 1544 1546 1547 1550 1551 1551 1552 1554 1557 1559 1560 1562 1562 1564 1564 1565 1566 1567 1567 1568 1569 1569 1570 1571 1572 1573 1574 1575 1577
1490 1483 1491 1491 1491 1490 1491 1491 1501 1505 1509 1511 1513 1514 1519 1526 1531 1535 1539 1542 1544 1546 1548 1550 1553 1553 1555 1556 1557 1559 1560 1561 1563 1564 1565 1566 1567 1568 1568 1568 1568 1569 1569 1571 1572 1573 1574 1575 1577
1489 1479 1488 1491 1493 1493 1493 1496 1497 1499 1506 1513 1516 1519 1523 1527 1531 1534 1538 1541 1543 1545 1548 1548 1551 1553 1554 1557 1557 1558 1560 1562 1563 1565 1566 1566 1569 1569 1569 1568 1568 1568 1569 1570 1572 1572 1572 1574 1575
1484 1482 1490 1494 1498 1496 1492 1491 1496 1494 1493 1503 1512 1520 1524 1527 1530 1534 1536 1539 1542 1544 1546 1548 1549 1551 1553 1555 1556 1558 1559 1559 1562 1562 1564 1565 1567 1568 1569 1569 1568 1567 1568 1570 1571 1571 1572 1573 1573
1492 1495 1497 1495 1498 1497 1495 1494 1493 1497 1497 1505 1510 1518 1522 1526 1529 1532 1534 1537 1540 1543 1545 1547 1549 1549 1552 1554 1556 1556 1557 1558 1561 1561 1562 1562 1564 1564 1565 1568 1566 1565 1567 1569 1569 1570 1572 1573 1573
1496 1497 1499 1498 1497 1498 1498 1495 1495 1497 1501 1507 1511 1516 1521 1524 1527 1531 1534 1536 1539 1542 1545 1546 1547 1548 1549 1550 1554 1555 1557 1558 1559 1558 1559 1560 1562 1562 1562 1562 1563 1564 1563 1565 1566 1567 1567 1571 1571
1498 1500 1498 1496 1495 1496 1497 1491 1495 1500 1504 1507 1512 1516 1519 1522 1526 1529 1533 1535 1537 1540 1543 1544 1545 1546 1547 1547 1550 1553 1555 1557 1558 1559 1559 1558 1560 1559 1559 1558 1558 1559 1559 1559 1554 1557 1563 1569 1569
1502 1500 1491 1491 1492 1491 1493 1490 1490 1499 1502 1507 1511 1514 1517 1522 1525 1528 1531 1534 1536 1539 1541 1543 1543 1544 1544 1546 1548 1550 1553 1554 1556 1557 1557 1557 1557 1558 1556 1555 1555 1554 1556 1553 1542 1543 1557 1566 1570
1499 1493 1495 1482 1491 1490 1490 1496 1493 1498 1499 1506 1510 1513 1517 1522 1524 1527 1530 1532 1535 1537 1539 1541 1542 1543 1543 1544 1546 1548 1551 1552 1553 1554 1553 1553 1554 1554 1554 1554 1553 1552 1553 1553 1549 1552 1559 1562 1565
1490 1497 1489 1486 1491 1491 1491 1490 1492 1495 1498 1505 1509 1513 1517 1521 1524 1526 1529 1531 1532 1535 1537 1539 1540 1541 1542 1543 1543 1545 1549 1550 1550 1551 1552 1550 1551 1553 1552 1553 1553 1552 1552 1553 1555 1556 1556 1558 1559
1489 1489 1485 1495 1488 1490 1488 1487 1485 1494 1496 1501 1507 1512 1516 1519 1522 1525 1527 1529 1531 1533 1535 1537 1539 1541 1541 1544 1543 1544 1544 1547 1549 1550 1550 1550 1547 1547 1548 1548 1549 1549 1549 1551 1553 1553 1556 1557 1556
1493 1494 1495 1488 1487 1496 1487 1490 1485 1489 1493 1496 1502 1509 1513 1517 1520 1524 1526 1527 1529 1531 1534 1537 1531 1523 1533 1526 1541 1542 1543 1544 1547 1547 1548 1546 1545 1544 1543 1543 1544 1545 1545 1547 1548 1549 1552 1554 1554
1496 1498 1494 1486 1489 1494 1488 1486 1481 1483 1489 1491 1498 1505 1510 1514 1518 1523 1525 1526 1526 1529 1532 1533 1534 1533 1533 1531 1540 1539 1541 1545 1545 1545 1543 1542 1542 1540 1539 1538 1538 1539 1540 1541 1542 1544 1544 1548 1550
1496 1496 1490 1496 1487 1485 1486 1488 1481 1479 1487 1492 1494 1497 1505 1509 1515 1521 1524 1525 1525 1527 1530 1530 1533 1535 1536 1538 1538 1539 1541 1541 1542 1542 1542 1540 1538 1537 1535 1534 1533 1533 1534 1535 1537 1538 1540 1542 1545
1498 1485 1493 1495 1496 1498 1481 1503 1479 1474 1479 1486 1492 1496 1499 1506 1513 1518 1522 1524 1525 1527 1528 1530 1532 1534 1535 1536 1538 1540 1542 1541 1541 1541 1539 1536 1534 1533 1531 1530 1528 1528 1529 1530 1531 1533 1535 1536 1539
1493 1491 1494 1493 1494 1490 1485 1494 1474 1472 1480 1477 1484 1492 1497 1503 1510 1516 1520 1522 1524 1526 1527 1529 1530 1533 1534 1536 1539 1540 1540 1541 1541 1539 1536 1534 1533 1531 1529 1526 1525 1523 1523 1524 1526 1527 1528 1531 1534
1491 1496 1493 1491 1489 1501 1482 1487 1484 1473 1479 1479 1484 1493 1495 1501 1509 1515 1519 1521 1524 1526 1528 1529 1530 1532 1533 1537 1537 1538 1538 1538 1538 1535 1535 1534 1533 1531 1526 1523 1521 1519 1519 1520 1522 1522 1524 1526 1529
1495 1497 1509 1508 1499 1496 1474 1489 1482 1471 1475 1482 1486 1490 1495 1500 1507 1513 1517 1520 1522 1525 1527 1530 1531 1532 1534 1536 1537 1539 1538 1538 1537 1535 1534 1532 1531 1528 1524 1521 1519 1517 1517 1517 1519 1520 1521 1522 1524
1495 1494 1502 1517 1502 1497 1479 1493 1481 1473 1477 1482 1489 1491 1494 1499 1505 1510 1515 1518 1521 1523 1526 1530 1532 1532 1534 1537 1537 1538 1539 1539 1538 1534 1532 1533 1529 1526 1523 1520 1518 1518 1517 1516 1516 1518 1519 1520 1520
1489 1497 1483 1494 1484 1491 1477 1466 1463 1468 1473 1478 1485 1491 1494 1499 1503 1508 1512 1517 1520 1523 1526 1529 1532 1533 1535 1536 1536 1537 1537 1536 1534 1533 1532 1531 1528 1525 1522 1520 1518 1518 1517 1516 1517 1517 1517 1517 1519
1485 1480 1498 1491 1517 1515 1480 1476 1476 1473 1471 1476 1487 1490 1495 1499 1503 1507 1512 1516 1519 1523 1527 1529 1531 1534 1535 1536 1537 1537 1536 1536 1535 1534 1533 1529 1527 1525 1523 1520 1520 1517 1517 1516 1513 1517 1517 1517 1518
1487 1492 1487 1478 1479 1501 1501 1496 1480 1472 1472 1473 1482 1490 1496 1499 1504 1508 1512 1516 1519 1523 1527 1531 1533 1535 1535 1536 1537 1537 1538 1537 1536 1534 1534 1531 1529 1527 1524 1522 1521 1519 1518 1518 1517 1517 1517 1518 1519
1472 1476 1479 1491 1497 1481 1481 1480 1463 1464 1470 1472 1479 1490 1495 1499 1503 1508 1511 1515 1519 1523 1527 1531 1534 1535 1536 1535 1536 1538 1539 1537 1536 1536 1536 1532 1529 1528 1526 1525 1524 1522 1520 1518 1517 1517 1518 1518 1520
Wind_Speed
5 9 8 8 1 8 16 17 17 15 13 16 12 16 13 19 14 3 20 17 19 18 21 22 20 18 15 14 12 11 10 9 8 9 8 8 8 6 7 9 9 7 5 4 3 3 2 3 3
1 9 10 9 4 11 14 15 15 13 11 4 10 8 13 14 13 17 19 20 19 18 21 21 20 17 15 13 13 12 11 10 9 9 8 7 6 5 6 6 5 5 4 4 3 2 2 2 3
8 9 11 6 11 13 12 12 12 10 6 7 8 13 16 14 11 16 18 21 19 18 18 20 19 16 14 12 11 11 11 11 10 8 8 7 6 6 5 4 4 4 3 2 3 1 1 2 4
7 10 10 10 15 15 14 11 8 11 10 11 4 11 15 13 7 11 21 19 18 17 17 19 17 15 13 11 10 10 10 9 8 7 6 6 5 5 5 4 3 2 2 3 3 2 1 1 5
11 14 2 10 16 14 12 12 6 11 8 11 9 15 14 10 13 19 19 17 18 17 14 17 16 14 12 10 10 9 9 9 9 8 7 7 5 5 4 3 2 1 2 3 2 2 1 1 4
17 12 9 9 13 15 9 11 6 10 9 6 12 14 11 11 14 15 16 16 15 15 11 16 16 12 11 10 9 8 8 8 7 7 6 6 5 4 3 2 2 2 2 2 2 2 1 1 5
17 5 10 11 13 10 10 3 11 11 6 11 3 13 10 13 13 15 15 15 14 14 13 12 14 15 13 10 9 8 7 7 6 5 5 6 5 3 2 2 1 1 2 2 3 2 3 2 5
20 9 3 5 12 13 6 9 5 7 12 7 1 7 12 16 16 15 15 14 13 14 15 12 12 12 12 11 10 8 7 6 5 6 5 5 4 2 4 2 2 2 3 3 3 2 4 5 6
11 5 6 6 10 10 8 5 5 4 10 5 6 7 16 18 17 16 16 15 14 14 13 15 13 12 11 10 11 10 10 9 8 7 6 4 3 6 5 4 6 5 5 4 5 4 5 6 6
11 3 13 9 7 7 7 5 4 6 13 8 9 13 17 19 18 16 16 16 16 15 15 11 13 13 12 10 10 10 9 7 6 6 8 5 4 8 10 7 8 7 5 5 5 5 6 8 8
7 11 5 6 6 5 7 5 2 2 5 17 13 16 18 18 16 15 13 13 14 14 17 16 12 11 11 12 8 9 10 12 12 10 11 9 12 10 5 6 5 3 7 4 10 5 6 8 8
7 4 2 7 3 4 6 8 2 3 12 6 10 17 19 17 16 15 14 13 13 14 13 14 15 13 10 11 7 8 8 8 10 11 13 13 14 15 12 6 11 8 6 7 10 6 9 9 10
10 3 3 4 4 6 6 10 5 5 5 6 12 18 19 17 15 14 13 13 13 14 14 15 15 15 14 18 10 10 11 11 9 14 14 14 12 14 15 13 11 9 12 10 9 6 8 11 11
4 6 7 7 3 7 8 9 3 9 5 9 14 16 18 17 15 16 15 14 13 14 15 15 15 14 14 11 13 11 10 11 11 12 12 15 12 16 20 22 18 18 15 13 23 16 14 11 13
10 10 13 12 3 8 11 12 6 8 6 11 13 15 17 16 14 15 15 14 14 13 15 15 15 14 13 12 11 10 10 12 11 10 13 14 14 16 18 22 21 19 15 20 20 4 7 11 12
13 15 13 10 3 4 12 10 8 6 10 12 13 15 17 16 14 13 14 14 14 13 15 16 14 14 13 12 11 10 9 10 12 12 18 15 13 15 17 15 17 14 24 23 17 14 12 15 15
14 14 14 7 2 4 7 5 9 3 7 13 12 15 16 16 15 12 13 14 14 15 15 17 16 16 16 15 12 10 9 9 9 10 11 16 16 15 19 15 15 17 22 15 19 17 19 19 12
5 11 5 5 6 4 11 5 9 5 8 13 12 14 16 17 16 14 12 12 13 15 16 16 18 16 14 15 14 11 11 11 9 11 11 14 19 18 19 20 21 23 21 22 21 20 18 16 14
9 8 8 5 3 9 11 4 10 6 7 10 12 14 16 17 16 14 12 11 11 14 15 15 14 4 15 13 9 7 7 5 7 10 11 17 17 17 19 21 22 23 25 25 22 21 21 18 14
8 9 11 6 1 9 12 9 10 5 6 6 12 15 15 16 16 14 12 10 10 12 14 13 14 12 12 12 10 7 5 5 8 11 13 14 14 16 18 21 23 24 25 25 28 26 22 21 16
11 11 7 9 2 12 12 15 15 11 7 6 8 12 15 16 17 15 12 10 8 11 11 13 14 12 11 10 7 4 2 4 4 5 8 8 12 14 13 16 19 21 24 24 25 24 24 22 14
14 7 8 8 10 10 1 10 11 10 9 12 9 10 13 15 15 15 11 10 11 11 9 9 8 8 7 7 5 3 2 2 4 5 7 9 12 11 12 13 16 18 19 21 22 23 23 21 21
4 1 6 9 11 13 10 6 4 8 4 8 4 8 11 14 16 14 12 10 13 12 10 8 7 7 7 5 2 1 1 2 1 3 7 12 12 12 11 11 14 16 17 18 18 19 23 25 24
5 8 11 11 12 12 13 6 7 6 10 6 9 2 9 15 16 14 12 12 12 12 10 11 9 8 8 6 4 5 5 2 1 5 8 9 10 12 17 11 13 13 15 18 16 17 19 24 26
9 11 9 10 11 9 8 4 8 8 5 4 5 4 9 14 16 16 15 13 14 16 14 11 11 10 10 7 4 3 3 4 5 7 7 12 11 12 16 13 11 10 9 12 14 14 16 19 22
12 14 11 13 9 3 7 3 3 6 3 5 3 3 10 15 16 17 15 14 15 17 18 14 10 10 11 7 6 5 4 1 4 7 8 8 11 12 15 13 9 7 7 7 9 11 14 15 16
14 12 15 17 17 12 12 7 9 7 3 8 7 7 11 13 15 16 15 14 17 16 16 15 15 13 11 9 7 5 2 0 4 6 7 8 12 13 14 13 10 7 5 5 6 5 7 10 11
17 6 10 9 14 15 13 3 5 8 2 16 9 9 11 13 13 14 13 15 15 17 15 15 16 14 12 10 7 5 2 4 5 6 10 10 12 13 14 13 10 7 7 5 3 5 4 4 7
8 12 12 16 10 10 8 4 15 5 4 7 10 11 12 13 14 14 14 14 16 16 15 15 14 14 12 11 8 5 3 3 4 8 8 9 11 13 15 15 12 9 8 7 7 5 5 4 2
8 12 15 10 13 10 11 7 19 8 8 3 12 13 14 15 13 14 16 17 17 17 16 14 12 11 10 9 7 5 4 0 5 6 6 7 11 12 15 14 13 11 10 9 8 7 4 5 6
Wind_Direction
28 332 300 288 178 80 76 63 52 61 71 61 44 36 42 25 37 91 134 133 136 142 151 150 149 146 142 142 146 149 155 154 154 150 146 144 141 139 144 136 143 146 139 127 131 141 139 163 148
10 293 284 283 112 81 77 69 66 55 55 72 51 68 47 57 60 122 130 138 139 145 145 155 153 151 148 149 149 153 155 161 159 159 151 147 146 148 141 152 145 162 158 151 148 147 135 158 166
346 295 274 263 57 77 87 83 76 69 55 49 90 48 33 74 93 126 135 137 138 142 145 157 155 154 151 152 151 153 155 158 158 159 149 151 151 148 139 146 167 171 186 200 164 158 140 190 192
301 260 247 74 83 82 83 79 45 120 87 59 94 90 72 86 96 136 139 139 137 140 155 157 153 154 155 154 152 154 152 150 151 152 149 152 149 147 145 160 163 187 178 199 192 175 78 181 180
257 262 348 106 96 86 81 74 38 80 68 60 61 76 94 83 107 128 138 141 140 145 170 164 158 159 159 155 153 155 155 155 156 159 159 158 153 148 146 138 133 159 169 176 209 216 143 71 172
270 9 142 100 103 111 90 106 75 72 83 111 92 93 80 118 125 136 142 143 146 151 148 168 164 165 165 160 162 162 160 158 160 164 164 158 166 166 167 162 161 191 214 217 219 235 266 118 169
262 215 57 92 100 77 84 307 67 84 87 68 91 77 112 134 135 142 148 149 152 155 156 169 169 172 172 173 175 172 174 170 165 179 181 181 189 196 199 215 202 225 269 259 241 227 230 179 163
281 106 93 69 93 92 78 87 55 19 79 94 38 107 148 145 146 147 153 153 159 164 166 171 176 178 179 186 188 188 190 194 190 202 204 203 204 230 252 271 319 274 248 267 253 227 214 200 188
255 242 102 61 50 84 97 98 99 78 117 83 70 73 130 151 150 151 157 160 166 170 185 185 183 185 189 195 202 200 200 204 214 217 219 214 200 305 305 264 260 267 266 253 254 239 206 202 206
256 226 58 39 45 29 91 2 89 207 118 128 112 118 137 148 156 156 165 173 177 180 176 202 191 193 194 191 212 200 215 206 218 219 227 164 225 219 205 242 296 277 267 270 268 258 231 215 195
304 76 110 90 38 13 339 168 122 9 178 137 154 149 151 154 159 164 170 175 182 185 189 186 205 207 201 203 225 211 220 208 201 215 231 196 212 223 230 243 267 288 288 269 251 274 242 226 212
267 58 359 44 357 328 342 334 291 49 66 78 148 159 160 162 165 169 172 177 181 185 187 191 193 199 194 209 204 236 223 229 216 239 228 221 217 230 210 212 235 255 232 217 261 233 242 210 229
263 101 257 259 286 330 320 274 343 322 72 115 143 160 167 167 168 171 173 178 182 186 190 193 196 199 196 214 213 210 219 236 234 232 255 235 232 232 231 224 245 235 221 224 239 217 233 244 238
51 270 273 272 299 257 284 291 191 114 111 136 152 165 173 170 169 170 174 178 184 188 191 194 199 201 206 204 210 222 211 233 230 236 247 264 235 262 251 250 277 243 226 217 221 205 212 227 243
262 258 243 225 283 290 303 246 151 102 135 136 157 173 174 173 172 177 179 182 185 192 193 197 197 208 206 210 213 210 218 227 235 246 236 238 247 248 262 260 262 228 232 239 265 196 213 227 233
241 241 259 145 261 125 286 107 109 157 153 145 165 173 171 177 179 183 185 187 190 195 199 201 204 208 208 205 206 195 206 222 224 237 242 250 248 249 257 256 254 247 238 244 257 273 243 254 232
219 253 210 115 122 329 280 342 124 165 154 144 168 170 174 180 183 184 189 195 199 202 205 206 208 208 207 203 189 188 205 215 230 235 232 253 250 246 254 245 256 246 235 235 240 237 247 248 245
275 203 196 263 170 235 260 266 133 158 175 160 171 176 181 189 190 187 188 199 206 209 212 218 218 208 212 205 196 181 215 208 234 238 245 249 264 259 249 245 244 243 242 225 237 230 239 249 251
319 304 301 292 111 263 275 286 282 136 199 166 175 183 193 197 194 192 195 202 212 213 214 222 232 310 304 257 193 207 212 246 252 256 252 253 260 259 258 256 253 247 242 236 233 238 238 238 241
258 261 252 237 67 260 274 287 295 153 228 208 188 182 203 194 184 192 195 204 216 212 209 215 224 239 268 234 207 202 215 236 253 256 279 283 284 276 267 261 256 251 247 243 238 233 231 231 228
242 261 270 277 225 253 254 259 242 182 182 210 230 202 197 205 189 196 205 206 200 200 195 208 211 222 230 213 213 195 232 295 295 294 300 294 290 280 264 269 264 258 250 248 245 238 234 230 220
267 170 278 272 268 280 164 294 174 167 194 178 207 211 207 198 191 192 199 194 184 181 184 174 177 187 198 208 206 212 271 252 283 340 291 313 326 307 287 278 266 262 258 248 244 241 236 229 218
291 352 255 273 272 267 269 240 248 177 212 133 120 185 198 180 186 186 191 188 184 190 181 187 170 169 191 208 200 114 160 327 310 349 349 348 342 325 305 303 287 269 260 257 246 232 236 235 227
295 254 241 252 255 257 239 271 287 54 42 26 140 147 181 175 177 181 180 171 170 172 180 173 171 197 189 177 184 191 195 170 157 5 11 352 339 331 328 298 305 287 272 250 247 245 238 233 230
212 248 245 222 221 242 103 247 309 359 89 35 359 123 170 169 173 176 175 176 173 173 166 166 162 170 172 165 161 160 128 80 4 29 354 15 340 338 336 334 333 322 302 251 237 237 239 235 234
219 257 268 292 285 53 165 279 77 52 336 143 155 179 158 167 175 175 180 183 173 175 177 178 182 181 161 168 164 156 125 37 21 355 24 350 348 346 344 346 345 333 323 295 259 241 238 238 249
248 244 259 276 273 267 282 256 184 136 207 144 120 134 155 165 172 176 174 178 178 173 175 186 193 183 167 175 172 158 166 50 15 17 36 9 349 358 356 358 8 357 316 312 298 255 244 241 235
256 285 243 233 265 281 265 272 210 147 161 121 136 158 158 166 164 166 169 170 171 178 181 175 180 173 174 165 163 153 80 46 35 18 25 358 9 9 11 13 21 20 20 357 300 289 265 251 242
190 238 254 284 286 282 277 156 1 357 93 102 133 155 166 168 166 164 164 163 162 163 166 169 175 173 166 158 159 138 111 40 47 38 26 2 18 19 26 26 31 39 36 51 75 92 91 81 81
290 236 221 246 231 260 276 284 194 149 138 143 140 154 162 161 155 161 162 159 157 161 164 166 175 174 166 155 152 150 111 263 53 55 30 21 32 28 37 35 33 39 46 52 61 74 86 102 102